Terminal Aerodrome Forecast
Issued by NWS

Home | Current Version | Previous Version | Graphics & Text | Print | Product List | Glossary Off
Versions: 1 2 3 4 5 6 7 8 9 10 11 12 13 14 15 16 17 18 19 20 21 22 23 24 25 26 27 28 29 30 31 32 33 34 35 36

000
FTUS43 KDDC 230541
TAFHYS
TAF
KHYS 230541Z 2306/2406 13007KT P6SM BKN030
     FM231000 13008KT P6SM BKN020
     FM240100 14014KT P6SM OVC008
     FM240500 14014G23KT P6SM OVC004=

USA.gov is the U.S. government's official web portal to all federal, state and local government web resources and services.